Winnipeg, Manitoba

7:58 PM CDT on April 26, 2017 (GMT -0500)
Winnipeg International Airport

Weather History for CYWG - November, 2012

Change the Weather History Date:

Monday, November 26, 2012

  Actual Average Record
Temperature  
Mean Temperature 1 °F -  
Max Temperature 15 °F 16 °F 39 °F (2016)
Min Temperature -13 °F -1 °F -20 °F (2014)
Degree Days  
Heating Degree Days 64    
Moisture  
Dew Point -1 °F    
Average Humidity 83    
Maximum Humidity 100    
Minimum Humidity 64    
Precipitation  
Precipitation 0.04 in 0.02 in - ()
Sea Level Pressure  
Sea Level Pressure 30.34 in    
Wind  
Wind Speed 9 mph ()    
Max Wind Speed 17 mph    
Max Gust Speed -    
Visibility 8.5 miles    
Events Snow    
Averages and records for this station are not official NWS values.
T = Trace of Precipitation, MM = Missing Value Source: Averaged Metar Reports

Daily Weather History Graph

Daily Weather History Graph

Search for Another Location

Airport or City:

Trip Planner

Search our weather history database for the weather conditions in past years. The results will help you decide how hot, cold, wet, or windy it might be!

Date:

Astronomy

Nov. 26, 2012 Rise Set
Actual Time 7:59 AM CST 4:33 PM CST
Civil Twilight 7:22 AM CST 5:10 PM CST
Nautical Twilight 6:41 AM CST 5:50 PM CST
Astronomical Twilight 6:03 AM CST 6:29 PM CST
Moon 3:31 PM CST (11/26) 6:04 AM CST (11/26)
Length of Visible Light 9h 47m
Length of Day
8h 34m
Waxing Gibbous, 97% of the Moon is Illuminated
Nov 26
Waxing Gibbous
Nov 28
Full
Dec 6
Last Quarter
Dec 13
New
Dec 19
First Quarter

Hourly Weather History & Observations

Time (CST) Temp. Windchill Dew Point Humidity Pressure Visibility Wind Dir Wind Speed Gust Speed Precip Events Conditions
12:00 AM -7 °F - -8 °F 89% 30.39 in 9 mi Calm Calm - -  
12:00 AM -7.6 °F -23.4 °F -9.4 °F 92% 30.39 in 15.0 mi NW 8.1 mph - N/A   Partly Cloudy
1:00 AM -7.6 °F -23.4 °F -7.6 °F 100% 30.40 in 15.0 mi WNW 8.1 mph - N/A   Clear
2:00 AM -9.4 °F -25.6 °F -11.2 °F 92% 30.40 in 15.0 mi WNW 8.1 mph - N/A   Clear
3:00 AM -13.0 °F -31.3 °F -22.0 °F 64% 30.43 in 15.0 mi NW 9.2 mph - N/A   Clear
4:00 AM -13.0 °F -30.0 °F -22.0 °F 64% 30.44 in 15.0 mi WNW 8.1 mph - N/A   Clear
5:00 AM -9.4 °F -25.6 °F -14.8 °F 77% 30.45 in 15.0 mi West 8.1 mph - N/A   Partly Cloudy
6:00 AM -8 °F - -14 °F 65% 30.44 in 9 mi Calm Calm - -  
6:00 AM -7.6 °F -20.6 °F -13.0 °F 77% 30.44 in 15.0 mi West 5.8 mph - N/A   Partly Cloudy
7:00 AM -2.2 °F -12.5 °F -7.6 °F 78% 30.44 in 15.0 mi WSW 4.6 mph - N/A   Mostly Cloudy
8:00 AM -0.4 °F -10.4 °F -5.8 °F 78% 30.44 in 15.0 mi WSW 4.6 mph - N/A   Mostly Cloudy
9:00 AM 1.4 °F -6.2 °F -4.0 °F 78% 30.44 in 15.0 mi SW 3.5 mph - N/A   Mostly Cloudy
9:40 AM 1.4 °F -9.9 °F - N/A% - 8.0 mi SSW 5.8 mph - N/A Snow Light Snow
10:00 AM 3.2 °F -7.8 °F -2.2 °F 78% 30.43 in 5.0 mi South 5.8 mph - N/A Snow Light Snow
10:06 AM 3.2 °F -7.8 °F - N/A% - 3.0 mi South 5.8 mph - N/A Snow Light Snow
10:42 AM 3.2 °F -10.3 °F - N/A% - 3.0 mi South 8.1 mph - N/A Snow Light Snow
11:00 AM 3.2 °F -10.3 °F -0.4 °F 85% 30.41 in 4.0 mi SSW 8.1 mph - N/A Snow Light Snow
12:00 PM 5 °F - -0 °F 68% 30.39 in 9 mi Calm Calm - -   Unknown Precipitation
12:00 PM 5.0 °F -10.8 °F -0.4 °F 78% 30.39 in 10.0 mi South 11.5 mph - N/A Snow Light Snow
12:44 PM 5.0 °F -12.3 °F - N/A% - 6.0 mi South 13.8 mph - N/A Snow Light Snow Showers
12:49 PM 5.0 °F -12.3 °F - N/A% - 2.0 mi South 13.8 mph - N/A Snow Light Snow Showers
12:53 PM 5.0 °F -10.8 °F - N/A% - 1.2 mi South 11.5 mph - N/A Snow Light Snow Showers
1:00 PM 5.0 °F -13.6 °F 1.4 °F 85% 30.35 in 1.0 mi South 16.1 mph - N/A Snow Light Snow Showers
1:11 PM 6.8 °F -9.3 °F - N/A% - 2.0 mi South 12.7 mph - N/A Snow Light Snow Showers
1:17 PM 6.8 °F -10.0 °F - N/A% - 1.2 mi South 13.8 mph - N/A Snow Light Snow Showers
1:39 PM 6.8 °F -11.3 °F - N/A% - 1.0 mi South 16.1 mph - N/A Snow Light Snow Showers
1:53 PM 6.8 °F -10.7 °F - N/A% - 1.0 mi South 15.0 mph - N/A Snow Light Snow
2:00 PM 6.8 °F -8.6 °F 3.2 °F 85% 30.33 in 1.0 mi South 11.5 mph - N/A Snow Light Snow
2:16 PM 8.6 °F -7.0 °F - N/A% - 2.5 mi South 12.7 mph - N/A Snow Light Snow Showers
3:00 PM 8.6 °F -8.3 °F 5.0 °F 85% 30.30 in 5.0 mi South 15.0 mph - N/A Snow Light Snow Showers
3:22 PM 8.6 °F -8.9 °F - N/A% - 8.0 mi South 16.1 mph - N/A   Overcast
4:00 PM 10.4 °F -6.6 °F 8.6 °F 92% 30.27 in 8.0 mi South 16.1 mph - N/A Snow Light Snow Showers
4:29 PM 10.4 °F -7.2 °F - N/A% - 3.0 mi South 17.3 mph - N/A Snow Light Snow Showers
5:00 PM 10.4 °F -6.6 °F 8.6 °F 92% 30.25 in 4.0 mi South 16.1 mph - N/A Snow Light Snow Showers
5:38 PM 12.2 °F -3.7 °F - N/A% - 8.0 mi South 15.0 mph - N/A   Overcast
6:00 PM 12 °F - 10 °F 87% 30.22 in 9 mi Calm Calm - -   Overcast
6:00 PM 12.2 °F -3.7 °F 10.4 °F 92% 30.22 in 8.0 mi South 15.0 mph - N/A   Overcast
7:00 PM 14.0 °F -0.2 °F 10.4 °F 86% 30.20 in 15.0 mi SSW 12.7 mph - N/A   Overcast
8:00 PM 15.8 °F 4.2 °F 12.2 °F 86% 30.18 in 15.0 mi SSW 9.2 mph - N/A   Overcast
9:00 PM 14.0 °F 2.9 °F 12.2 °F 93% 30.16 in 15.0 mi WSW 8.1 mph - N/A   Mostly Cloudy
10:00 PM 15.8 °F 5.1 °F 12.2 °F 86% 30.16 in 15.0 mi West 8.1 mph - N/A   Mostly Cloudy
11:00 PM 15.8 °F 2.1 °F 10.4 °F 79% 30.16 in 15.0 mi WNW 12.7 mph - N/A   Mostly Cloudy